Preview of NWS' New Version of Forecast
This preview is not operational and should not be used for support decisions.

Regional Weather Roundup (RWR)

Issued by National Weather Service (NWS)

                            
000
ASUS44 KMEG 251200
RWRTN 
TENNESSEE HOURLY STATE WEATHER ROUNDUP
NATIONAL WEATHER SERVICE MEMPHIS TN
700 AM CDT SUN AUG 25 2019

TNZ002-004-019-021-049-052-054-088>092-251300-
WEST TENNESSEE
  
CITY           SKY/WX    TMP DP  RH WIND       PRES   REMARKS
MEMPHIS INTL   CLOUDY    74  73  97 CALM      29.96S                  
NWS MEMPHIS      N/A     73 N/A N/A MISG        N/A                   
JACKSON        MOCLDY    73  72  96 E5        29.99R FOG              
DYERSBURG      CLOUDY    71  69  93 E6        29.98S                  
$$

TNZ008-025-027-028-033-062-065-066-251300-
NORTH MIDDLE TENNESSEE
  
CITY           SKY/WX    TMP DP  RH WIND       PRES   REMARKS
NASHVILLE      MOCLDY    72  66  81 CALM      30.02R                  
CLARKSVILLE    FAIR      67  61  81 E3        30.01R                  
SMYRNA         FAIR      70  69  97 CALM      30.03R                  
LIVINGSTON     CLOUDY    68  66  94 CALM      30.06R                  
CROSSVILLE     CLOUDY    67  65  93 VRB3      30.10R                  
$$

TNZ061-075-076-078-094-096-097-251300-
SOUTH MIDDLE TENNESSEE
  
CITY           SKY/WX    TMP DP  RH WIND       PRES   REMARKS
$$

TNZ017-018-042-046-047-251300-
NORTHEAST TENNESSEE
  
CITY           SKY/WX    TMP DP  RH WIND       PRES   REMARKS
TRI CITIES     PTSUNNY   62  58  86 CALM      30.15R                  
$$

TNZ012-013-036-069-073-074-251300-
CENTRAL EAST TENNESSEE
  
CITY           SKY/WX    TMP DP  RH WIND       PRES   REMARKS
KNOXVILLE      CLOUDY    68  61  78 NE7       30.08R                  
OAK RIDGE      CLOUDY    69  62  78 E3        30.10R                  
$$

TNZ083-085-099-251300-
SOUTHEAST TENNESSEE
  
CITY           SKY/WX    TMP DP  RH WIND       PRES   REMARKS
CHATTANOOGA    CLOUDY    71  65  81 S6        30.08R                  
$$

SKY/WX REPORTED AS FAIR MEANS FEW OR NO CLOUDS BELOW
12 THOUSAND FEET.